Location: Twentynine Palms Airport
(34.1316°N, 115.9458°W)
Time: 17:08:12
(UTC-07:00)

Amateur Radio Satellites - All Passes

Search period start: 04 July 2015 16:38
Search period end: 05 July 2015 16:38
Location: Twentynine Palms Airport, 34.1316°N, 115.9458°W

Satellite Date Start Highest point End Downlink Frequencies (MHz)
Time Altitude Azimuth
PCSat 04 Jul 16:42:21 16:46:54 26° 306° (NW) 16:51:23 145.827
CUTE-I 04 Jul 16:51:30 16:53:00 11° 64° (ENE) 16:54:51 437.470
STARS 04 Jul 17:12:03 17:14:49 16° 291° (WNW) 17:17:24 437.465
SO-50 04 Jul 17:16:50 17:21:16 40° 305° (NW) 17:25:50 436.795
Cubesat XI-IV 04 Jul 17:22:47 17:26:58 25° 69° (ENE) 17:31:19 437.490
O/OREOS (USA 219) 04 Jul 17:24:03 17:28:31 57° 68° (ENE) 17:33:00 437.305
JUGNU 04 Jul 17:27:28 17:31:39 20° 177° (S) 17:35:51 437.505
AO-7 04 Jul 17:35:29 17:41:33 21° 268° (W) 17:47:13 29.400- 29.500
AIST 2 04 Jul 17:35:35 17:39:46 69° 59° (ENE) 17:43:51 435.215
BEESAT 3 04 Jul 17:42:57 17:45:22 15° 250° (WSW) 17:47:37 437.485
BEESAT 2 04 Jul 17:55:33 17:57:50 14° 250° (WSW) 17:59:55 435.950
Cosmos 2504 04 Jul 18:04:56 18:12:08 46° 269° (W) 18:19:45 435.465 / 435.565
MOZHAYETS 4 04 Jul 18:14:46 18:18:23 22° 290° (WNW) 18:21:52
SRMSAT 04 Jul 18:20:16 18:24:01 17° 172° (S) 18:27:49 437.500
CUTE-I 04 Jul 18:27:07 18:32:29 79° 257° (WSW) 18:37:53 437.470
CUBESAT XI-V 04 Jul 18:41:06 18:45:41 53° 99° (E) 18:50:13 437.345
PRISM 04 Jul 18:50:16 18:52:51 16° 93° (E) 18:55:35 437.425
DANDE 04 Jul 18:53:16 18:55:11 18° 75° (ENE) 18:57:06 436.750
GONETS M04 04 Jul 18:57:08 19:02:44 19° 66° (ENE) 19:08:48
Cubesat XI-IV 04 Jul 19:01:59 19:06:54 36° 263° (W) 19:11:48 437.490
O/OREOS (USA 219) 04 Jul 19:06:41 19:07:30 10° 260° (W) 19:08:00 437.305
JUGNU 04 Jul 19:16:02 19:20:02 18° 187° (S) 19:24:00 437.505
GOMX 1 04 Jul 19:19:43 19:23:31 22° 71° (ENE) 19:27:18 467.674
CUSAT 1 04 Jul 19:29:26 19:31:52 37° 264° (W) 19:34:23 437.405
HO-68 04 Jul 19:36:36 19:42:39 32° 66° (ENE) 19:48:50 435.675
SEEDS 04 Jul 19:37:53 19:38:38 11° 68° (ENE) 19:39:40 437.485
STRAND 1 04 Jul 19:41:46 19:46:55 74° 102° (ESE) 19:52:02 437.568
BRITE-PL 04 Jul 19:43:54 19:49:23 67° 77° (ENE) 19:54:35 437.365/2234.400
DOVE 4 04 Jul 20:01:47 20:06:12 35° 74° (ENE) 20:10:28 437.250
SRMSAT 04 Jul 20:08:21 20:12:33 20° 182° (S) 20:16:44 437.500
COMPASS 1 04 Jul 20:12:05 20:15:15 22° 71° (ENE) 20:18:30 437.405
CUBESAT XI-V 04 Jul 20:20:26 20:22:42 13° 293° (WNW) 20:24:44 437.345
CUTE 1.7 + AOD 2 04 Jul 20:22:13 20:26:14 47° 75° (ENE) 20:30:19 437.475
PRISM 04 Jul 20:24:38 20:28:24 32° 288° (WNW) 20:32:05 437.425
CANX-2 04 Jul 20:25:31 20:29:38 59° 76° (ENE) 20:33:49 2200.000
CINEMA 3 04 Jul 20:45:14 20:49:33 45° 75° (ENE) 20:53:44 145.822/145.860
UWE-3 04 Jul 20:47:04 20:49:31 16° 70° (ENE) 20:52:07 435.000/436.395/437.385
Cosmos 2499 04 Jul 20:50:07 20:55:48 22° 70° (ENE) 21:02:08 435.465 / 435.565
GONETS M04 04 Jul 20:51:56 21:00:37 75° 266° (W) 21:09:15
AUBIESAT-1 04 Jul 20:54:46 20:58:28 27° 102° (ESE) 21:02:24 437.475
GOMX 1 04 Jul 20:56:38 21:01:28 36° 262° (W) 21:06:01 467.674
JUGNU 04 Jul 21:06:50 21:08:23 11° 196° (SSW) 21:09:49 437.505
SEEDS 04 Jul 21:09:57 21:14:01 52° 261° (W) 21:18:07 437.485
AAUSAT CUBESAT 2 04 Jul 21:20:07 21:24:12 60° 260° (W) 21:28:18 437.432
DX 1 04 Jul 21:20:37 21:21:10 10° 66° (ENE) 21:22:01 434.975-435.025
HO-68 04 Jul 21:23:28 21:30:12 43° 261° (W) 21:36:54 435.675
STRAND 1 04 Jul 21:23:45 21:25:34 11° 295° (WNW) 21:27:04 437.568
BRITE-PL 04 Jul 21:25:41 21:28:17 13° 270° (W) 21:30:28 437.365/2234.400
M-CUBED/EXP-1 PRIME 04 Jul 21:28:51 21:33:11 81° 107° (ESE) 21:37:48 437.505
CUBEBUG 2 04 Jul 21:31:11 21:35:30 71° 77° (ENE) 21:39:42 437.445
ZACube-1 04 Jul 21:32:10 21:36:07 40° 75° (ENE) 21:40:03 437.345
DELFI C3 04 Jul 21:33:20 21:37:12 51° 75° (ENE) 21:41:06 145.870
UKube-1 04 Jul 21:38:52 21:41:25 16° 69° (ENE) 21:44:09 .
Oscar 11 04 Jul 21:39:43 21:44:00 86° 258° (WSW) 21:48:19 145.826/435.025
DOVE 4 04 Jul 21:40:23 21:44:01 20° 266° (W) 21:47:23 437.250
COMPASS 1 04 Jul 21:47:26 21:50:49 23° 265° (W) 21:54:09 437.405
HUMSAT D 04 Jul 21:48:31 21:51:50 25° 72° (ENE) 21:55:13 437.325/437.525
AISAT 04 Jul 21:57:34 22:00:11 16° 69° (ENE) 22:03:00 437.250
SRMSAT 04 Jul 21:57:47 22:01:04 15° 191° (S) 22:04:15 437.500
CUTE 1.7 + AOD 2 04 Jul 22:01:17 22:02:29 11° 270° (W) 22:03:25 437.475
FUNcube-1 04 Jul 22:07:52 22:12:05 72° 259° (W) 22:16:15 145.935
TIGRISAT 04 Jul 22:12:54 22:14:49 13° 92° (E) 22:17:01 435.000
CUBEBUG 1 04 Jul 22:15:06 22:16:50 12° 68° (ENE) 22:18:49 437.445
UWE-3 04 Jul 22:21:53 22:25:49 35° 262° (W) 22:29:40 435.000/436.395/437.385
CINEMA 3 04 Jul 22:24:44 22:26:59 13° 268° (W) 22:28:57 145.822/145.860
AUBIESAT-1 04 Jul 22:29:32 22:33:05 24° 292° (WNW) 22:36:42 437.475
ESTCUBE 1 04 Jul 22:30:08 22:33:37 23° 71° (ENE) 22:37:14 437.505/2401.250
Cosmos 2499 04 Jul 22:41:39 22:49:33 66° 266° (W) 22:57:59 435.465 / 435.565
VELOX 1 04 Jul 22:44:49 22:49:09 53° 75° (ENE) 22:53:32 145.980
UNISAT 6 04 Jul 22:50:59 22:55:07 39° 99° (E) 22:59:20 437.425
DX 1 04 Jul 22:52:38 22:56:58 61° 259° (W) 23:01:18 434.975-435.025
QB50P2 04 Jul 22:53:59 22:56:25 15° 93° (E) 22:59:02 145.880/145.840
POPSAT HIP 1 04 Jul 22:54:40 22:57:01 15° 92° (E) 22:59:33 437.405
GONETS M04 04 Jul 22:54:40 22:56:16 10° 281° (W) 22:56:57
ZACube-1 04 Jul 23:10:42 23:12:42 13° 268° (W) 23:14:28 437.345
50 SAT 04 Jul 23:10:54 23:14:40 57° 259° (W) 23:18:27 437.505
UKube-1 04 Jul 23:13:13 23:17:16 37° 262° (W) 23:21:18 .
SPROUT 04 Jul 23:14:36 23:17:06 16° 69° (ENE) 23:19:46 437.525
HUMSAT D 04 Jul 23:24:27 23:27:33 20° 266° (W) 23:30:33 437.325/437.525
AISAT 04 Jul 23:32:16 23:36:29 39° 262° (W) 23:40:41 437.250
QB50P1 04 Jul 23:32:16 23:36:18 44° 99° (E) 23:40:20 145.935-145.965
ANTELSAT 04 Jul 23:35:21 23:39:42 61° 284° (WNW) 23:44:09 437.575/2403.000
NANOSAT C BR1 04 Jul 23:46:11 23:50:22 67° 101° (E) 23:54:32 145.865
TIGRISAT 04 Jul 23:47:38 23:51:50 45° 285° (WNW) 23:56:05 435.000
CUBEBUG 1 04 Jul 23:48:28 23:52:48 51° 260° (W) 23:57:08 437.445
PCSat 04 Jul 23:51:09 23:54:09 15° 48° (NE) 23:57:23 145.827
DUCHIFAT 1 04 Jul 23:52:57 23:57:09 80° 102° (ESE) 00:01:20 145.980
TISAT 1 04 Jul 23:53:11 23:56:47 28° 72° (ENE) 00:00:27 437.305
POLYITAN 1 04 Jul 23:58:38 00:02:51 82° 283° (WNW) 00:07:04 437.675
ESTCUBE 1 05 Jul 00:06:28 00:10:23 27° 264° (W) 00:14:14 437.505/2401.250
BUGSAT 1 05 Jul 00:07:54 00:11:57 77° 102° (ESE) 00:15:58 437.445
VELOX 1 05 Jul 00:24:38 00:26:05 11° 270° (W) 00:27:14 145.980
QB50P2 05 Jul 00:28:36 00:32:27 34° 287° (WNW) 00:36:14 145.880/145.840
UNISAT 6 05 Jul 00:28:53 00:31:38 16° 290° (WNW) 00:34:14 437.425
POPSAT HIP 1 05 Jul 00:29:12 00:33:02 34° 287° (WNW) 00:36:50 437.405
BEESAT 05 Jul 00:33:44 00:35:57 14° 67° (ENE) 00:38:26 436.000
SWISSCUBE 05 Jul 00:47:58 00:51:30 22° 69° (ENE) 00:55:11 437.505
SPROUT 05 Jul 00:48:54 00:52:55 37° 262° (W) 00:56:54 437.525
Cosmos 2491 05 Jul 00:52:59 00:57:08 15° 63° (ENE) 01:01:55 435.465 / 435.565
ITUPSAT 1 05 Jul 00:53:29 00:57:04 22° 69° (ENE) 01:00:48 437.325
QB50P1 05 Jul 01:09:55 01:11:49 12° 292° (WNW) 01:13:30 145.935-145.965
TISAT 1 05 Jul 01:29:28 01:32:35 19° 266° (W) 01:35:34 437.305
PCSat 05 Jul 01:32:47 01:38:11 71° 247° (WSW) 01:43:34 145.827
KKS-1 05 Jul 01:41:15 01:41:21 10° 66° (ENE) 01:41:44 437.445
RS-15 05 Jul 01:50:04 02:00:42 65° 113° (ESE) 02:11:39 29.354- 29.394
SO-50 05 Jul 01:51:31 01:56:28 67° 59° (ENE) 02:01:16 436.795
AIST 1 05 Jul 01:53:40 01:55:53 14° 72° (ENE) 01:58:18
BEESAT 05 Jul 02:08:43 02:13:24 54° 260° (W) 02:18:05 436.000
Oscar 19 05 Jul 02:15:16 02:20:25 87° 98° (E) 02:25:35 437.125/150
SWISSCUBE 05 Jul 02:24:53 02:29:11 33° 263° (W) 02:33:28 437.505
Gurwin Techsat 1B 05 Jul 02:25:54 02:30:26 29° 95° (E) 02:35:04 435.225
STARS 05 Jul 02:28:27 02:31:45 22° 71° (ENE) 02:35:09 437.465
ITAMSAT 1 05 Jul 02:28:39 02:33:06 29° 96° (E) 02:37:36 435.822/435.867
ITUPSAT 1 05 Jul 02:30:30 02:34:48 32° 263° (W) 02:39:04 437.325
Cosmos 2491 05 Jul 02:46:42 02:55:30 88° 84° (E) 03:04:13 435.465 / 435.565
KKS-1 05 Jul 03:13:05 03:17:31 64° 259° (W) 03:21:56 437.445
YUBILEINY 05 Jul 03:15:09 03:23:44 69° 93° (E) 03:32:22 435.215
JAS-2 05 Jul 03:18:00 03:23:57 31° 96° (E) 03:30:32 435.910
AIST 1 05 Jul 03:29:45 03:33:47 37° 268° (W) 03:37:43
SO-50 05 Jul 03:34:47 03:36:30 11° 252° (WSW) 03:37:53 436.795
MOZHAYETS 4 05 Jul 03:36:21 03:39:29 19° 70° (ENE) 03:42:47
AO-7 05 Jul 03:46:26 03:53:21 29° 96° (E) 04:00:28 29.400- 29.500
RS-15 05 Jul 04:04:08 04:13:54 34° 316° (NW) 04:23:43 29.354- 29.394
STARS 05 Jul 04:04:17 04:08:05 27° 264° (W) 04:11:48 437.465
Gurwin Techsat 1B 05 Jul 04:05:48 04:10:23 29° 290° (WNW) 04:14:50 435.225
ITAMSAT 1 05 Jul 04:08:05 04:12:33 28° 290° (WNW) 04:16:53 435.822/435.867
HORYU 2 05 Jul 04:09:13 04:13:26 41° 99° (E) 04:17:41 437.375
Cosmos 2504 05 Jul 04:41:37 04:46:23 21° 86° (E) 04:51:24 435.465 / 435.565
Cosmos 2491 05 Jul 04:46:44 04:51:22 15° 279° (W) 04:55:20 435.465 / 435.565
JAS-2 05 Jul 05:02:40 05:09:03 44° 288° (WNW) 05:15:59 435.910
MOZHAYETS 4 05 Jul 05:12:20 05:16:29 34° 263° (W) 05:20:39
YUBILEINY 05 Jul 05:14:59 05:21:26 21° 292° (WNW) 05:27:29 435.215
AO-7 05 Jul 05:38:24 05:46:29 54° 292° (WNW) 05:54:28 29.400- 29.500
CUBESAT XI-V 05 Jul 05:40:51 05:45:02 34° 73° (ENE) 05:49:19 437.345
Cubesat XI-IV 05 Jul 05:45:17 05:47:16 12° 90° (E) 05:49:38 437.490
VERMONT LUNAR 05 Jul 05:45:41 05:47:53 18° 145° (SE) 05:50:08 437.305
HORYU 2 05 Jul 05:47:06 05:49:46 15° 292° (WNW) 05:52:16 437.375
BEESAT 3 05 Jul 05:54:13 05:56:40 16° 110° (ESE) 05:59:16 437.485
BEESAT 2 05 Jul 06:07:15 06:09:57 18° 111° (ESE) 06:12:48 435.950
RS-15 05 Jul 06:27:25 06:31:27 12° 349° (N) 06:35:15 29.354- 29.394
Cosmos 2504 05 Jul 06:31:22 06:38:09 52° 281° (W) 06:44:50 435.465 / 435.565
CUTE-I 05 Jul 06:48:10 06:53:26 57° 100° (E) 06:58:41 437.470
CUSAT 1 05 Jul 06:48:41 06:53:38 23° 95° (E) 06:57:57 437.405
STRAND 1 05 Jul 06:53:47 06:58:53 72° 76° (ENE) 07:04:03 437.568
ISS 05 Jul 06:59:52 07:02:56 42° 133° (SE) 07:06:03 145.825
PRISM 05 Jul 07:10:14 07:14:23 75° 258° (WSW) 07:18:35 437.425
CUBESAT XI-V 05 Jul 07:19:05 07:22:34 20° 267° (W) 07:25:55 437.345
VERMONT LUNAR 05 Jul 07:21:29 07:24:35 66° 338° (NNW) 07:27:41 437.305
Cubesat XI-IV 05 Jul 07:22:35 07:27:55 66° 286° (WNW) 07:33:13 437.490
AIST 2 05 Jul 07:29:57 07:33:49 36° 114° (ESE) 07:37:45 435.215
BEESAT 3 05 Jul 07:30:37 07:34:22 34° 304° (NW) 07:38:08 437.485
O/OREOS (USA 219) 05 Jul 07:32:30 07:36:54 57° 292° (WNW) 07:41:17 437.305
AUBIESAT-1 05 Jul 07:41:06 07:42:49 14° 65° (ENE) 07:44:40 437.475
BEESAT 2 05 Jul 07:44:05 07:47:48 32° 305° (NW) 07:51:31 435.950
PHONESAT 2.4 05 Jul 07:50:52 07:54:02 36° 148° (SSE) 07:57:13 2401.200-2431.200
GONETS M04 05 Jul 07:53:37 08:00:12 26° 85° (E) 08:07:07
BRITE-PL 05 Jul 07:53:56 07:57:15 23° 94° (E) 08:00:35 437.365/2234.400
DANDE 05 Jul 07:55:56 08:03:29 72° 97° (E) 08:09:20 436.750
CUTE 1.7 + AOD 2 05 Jul 08:13:27 08:14:35 11° 90° (E) 08:16:01 437.475
M-CUBED/EXP-1 PRIME 05 Jul 08:14:39 08:17:49 49° 71° (ENE) 08:21:07 437.505
CANX-2 05 Jul 08:16:02 08:18:11 14° 91° (E) 08:20:34 2200.000
CUTE-I 05 Jul 08:29:50 08:33:05 16° 294° (WNW) 08:36:05 437.470
CUSAT 1 05 Jul 08:29:52 08:36:13 41° 280° (W) 08:41:07 437.405
ISS 05 Jul 08:37:15 08:39:30 17° 329° (NNW) 08:41:44 145.825
STRAND 1 05 Jul 08:37:38 08:38:42 10° 271° (W) 08:39:23 437.568
RS-15 05 Jul 08:44:12 08:50:52 17° 25° (NNE) 08:58:11 29.354- 29.394
CINEMA 3 05 Jul 08:45:19 08:47:07 13° 92° (E) 08:49:10 145.822/145.860
HO-68 05 Jul 08:54:47 09:01:35 46° 99° (E) 09:08:26 435.675
SEEDS 05 Jul 08:58:02 09:01:51 32° 97° (E) 09:05:42 437.485
VERMONT LUNAR 05 Jul 08:59:09 09:01:49 25° 354° (N) 09:04:30 437.305
GOMX 1 05 Jul 09:02:12 09:06:23 89° 273° (W) 09:10:32 467.674
AAUSAT CUBESAT 2 05 Jul 09:07:03 09:10:36 27° 96° (E) 09:14:13 437.432
AIST 2 05 Jul 09:09:25 09:12:32 19° 310° (NW) 09:15:32 435.215
AUBIESAT-1 05 Jul 09:14:40 09:17:25 23° 259° (W) 09:20:10 437.475
Cosmos 2499 05 Jul 09:25:26 09:28:56 15° 84° (E) 09:32:55 435.465 / 435.565
CUBEBUG 2 05 Jul 09:26:38 09:29:34 19° 94° (E) 09:32:41 437.445
ZACube-1 05 Jul 09:27:14 09:27:33 10° 90° (E) 09:28:12 437.345
PHONESAT 2.4 05 Jul 09:28:42 09:32:01 45° 343° (NNW) 09:35:20 2401.200-2431.200
Oscar 11 05 Jul 09:31:24 09:34:46 22° 94° (E) 09:38:15 145.826/435.025
BRITE-PL 05 Jul 09:32:27 09:35:45 22° 289° (WNW) 09:38:53 437.365/2234.400
COMPASS 1 05 Jul 09:33:27 09:37:41 70° 101° (E) 09:41:54 437.405
DOVE 4 05 Jul 09:41:54 09:45:54 48° 285° (WNW) 09:49:57 437.250
DANDE 05 Jul 09:42:33 09:46:47 16° 287° (WNW) 09:50:09 436.750
CUTE 1.7 + AOD 2 05 Jul 09:46:40 09:50:49 48° 285° (WNW) 09:54:57 437.475
UNISAT 6 05 Jul 09:47:14 09:50:28 22° 71° (ENE) 09:53:47 437.425
GONETS M04 05 Jul 09:47:54 09:56:33 58° 281° (W) 10:05:09
CANX-2 05 Jul 09:50:18 09:54:19 39° 286° (WNW) 09:58:18 2200.000
FUNcube-1 05 Jul 10:00:04 10:03:39 27° 96° (E) 10:07:22 145.935
UWE-3 05 Jul 10:14:44 10:18:54 56° 100° (E) 10:23:11 435.000/436.395/437.385
CINEMA 3 05 Jul 10:20:37 10:24:33 40° 286° (WNW) 10:28:33 145.822/145.860
QB50P1 05 Jul 10:21:59 10:25:11 22° 71° (ENE) 10:28:27 145.935-145.965
ANTELSAT 05 Jul 10:30:37 10:34:54 74° 78° (ENE) 10:39:10 437.575/2403.000
SEEDS 05 Jul 10:34:32 10:37:25 17° 290° (WNW) 10:40:10 437.485
NANOSAT C BR1 05 Jul 10:35:15 10:38:56 30° 73° (ENE) 10:42:40 145.865
VERMONT LUNAR 05 Jul 10:36:25 10:39:14 30° 11° (N) 10:42:04 437.305
VELOX 1 05 Jul 10:40:48 10:42:50 13° 91° (E) 10:45:06 145.980
DUCHIFAT 1 05 Jul 10:41:41 10:45:31 35° 73° (ENE) 10:49:23 145.980
TIGRISAT 05 Jul 10:42:31 10:46:49 82° 258° (WSW) 10:51:05 435.000
AAUSAT CUBESAT 2 05 Jul 10:42:54 10:46:03 20° 289° (WNW) 10:49:06 437.432
HO-68 05 Jul 10:43:02 10:49:05 30° 294° (WNW) 10:54:58 435.675
DX 1 05 Jul 10:45:02 10:48:48 29° 97° (E) 10:52:37 434.975-435.025
POLYITAN 1 05 Jul 10:47:51 10:51:53 44° 74° (ENE) 10:55:56 437.675
DELFI C3 05 Jul 10:50:50 10:54:49 52° 285° (WNW) 10:58:47 145.870
50 SAT 05 Jul 10:50:51 10:53:42 20° 94° (E) 10:56:41 437.505
BUGSAT 1 05 Jul 10:54:16 10:58:01 32° 73° (ENE) 11:01:48 437.445
RS-15 05 Jul 10:55:30 11:06:56 55° 54° (NE) 11:18:52 29.354- 29.394
ZACube-1 05 Jul 11:00:07 11:04:15 52° 285° (WNW) 11:08:28 437.345
CUBEBUG 2 05 Jul 11:02:37 11:06:18 29° 287° (WNW) 11:10:01 437.445
UKube-1 05 Jul 11:04:07 11:08:17 45° 99° (E) 11:12:25 .
Oscar 11 05 Jul 11:07:17 11:10:55 25° 288° (WNW) 11:14:27 145.826/435.025
PHONESAT 2.4 05 Jul 11:07:30 11:10:28 27° 360° (N) 11:13:29 2401.200-2431.200
HUMSAT D 05 Jul 11:10:38 11:14:49 82° 100° (E) 11:19:03 437.325/437.525
Cosmos 2499 05 Jul 11:14:21 11:21:24 70° 278° (W) 11:28:29 435.465 / 435.565
QB50P2 05 Jul 11:17:09 11:21:24 77° 259° (W) 11:25:39 145.880/145.840
POPSAT HIP 1 05 Jul 11:17:36 11:21:51 79° 258° (WSW) 11:26:06 437.405
UNISAT 6 05 Jul 11:23:33 11:27:09 25° 264° (W) 11:30:40 437.425
AISAT 05 Jul 11:26:24 11:30:41 50° 100° (E) 11:34:57 437.250
FUNcube-1 05 Jul 11:36:38 11:39:51 21° 289° (WNW) 11:43:00 145.935
CUBEBUG 1 05 Jul 11:41:11 11:45:13 37° 98° (E) 11:49:14 437.445
UWE-3 05 Jul 11:54:14 11:55:03 10° 292° (WNW) 11:55:37 435.000/436.395/437.385
QB50P1 05 Jul 11:57:21 12:00:55 25° 264° (W) 12:04:25 145.935-145.965
ESTCUBE 1 05 Jul 12:02:04 12:06:38 82° 104° (ESE) 12:11:09 437.505/2401.250
NANOSAT C BR1 05 Jul 12:11:53 12:14:50 18° 266° (W) 12:17:39 145.865
VERMONT LUNAR 05 Jul 12:13:11 12:16:20 72° 207° (SSW) 12:19:29 437.305
VELOX 1 05 Jul 12:15:28 12:19:39 43° 286° (WNW) 12:23:47 145.980
DUCHIFAT 1 05 Jul 12:18:53 12:21:28 15° 268° (W) 12:23:51 145.980
DX 1 05 Jul 12:21:41 12:24:53 20° 290° (WNW) 12:27:56 434.975-435.025
50 SAT 05 Jul 12:25:08 12:28:17 23° 288° (WNW) 12:31:22 437.505
POLYITAN 1 05 Jul 12:26:19 12:28:04 12° 269° (W) 12:29:33 437.675
BUGSAT 1 05 Jul 12:30:45 12:33:35 17° 267° (W) 12:36:14 437.445
SPROUT 05 Jul 12:38:58 12:43:06 48° 99° (E) 12:47:13 437.525
UKube-1 05 Jul 12:41:56 12:44:03 13° 292° (WNW) 12:45:57 .
PHONESAT 2.4 05 Jul 12:45:38 12:48:57 44° 17° (NNE) 12:52:18 2401.200-2431.200
AISAT 05 Jul 13:04:57 13:06:53 12° 293° (WNW) 13:08:35 437.250
RS-15 05 Jul 13:08:25 13:19:13 41° 251° (WSW) 13:30:03 29.354- 29.394
TISAT 1 05 Jul 13:16:12 13:20:24 88° 100° (E) 13:24:34 437.305
CUBEBUG 1 05 Jul 13:18:36 13:21:18 16° 291° (WNW) 13:23:48 437.445
Oscar 19 05 Jul 13:28:18 13:33:26 86° 80° (E) 13:38:36 437.125/150
YUBILEINY 05 Jul 13:30:43 13:37:48 28° 71° (ENE) 13:45:11 435.215
ISS 05 Jul 13:31:19 13:32:50 13° 28° (NNE) 13:34:25 145.825
ITAMSAT 1 05 Jul 13:43:02 13:47:31 31° 70° (ENE) 13:52:06 435.822/435.867
Gurwin Techsat 1B 05 Jul 13:43:22 13:48:00 32° 71° (ENE) 13:52:44 435.225
Cosmos 2491 05 Jul 13:49:44 13:55:17 20° 83° (E) 14:01:20 435.465 / 435.565
VERMONT LUNAR 05 Jul 13:52:26 13:52:54 10° 218° (SW) 13:53:15 437.305
BEESAT 05 Jul 14:12:37 14:17:18 51° 100° (E) 14:21:58 436.000
SPROUT 05 Jul 14:17:00 14:18:48 12° 292° (WNW) 14:20:22 437.525
PHONESAT 2.4 05 Jul 14:23:42 14:26:58 39° 211° (SSW) 14:30:14 2401.200-2431.200
SWISSCUBE 05 Jul 14:28:18 14:33:09 85° 106° (ESE) 14:37:56 437.505
PCSat 05 Jul 14:28:25 14:32:44 26° 108° (ESE) 14:37:13 145.827
ITUPSAT 1 05 Jul 14:34:11 14:39:02 88° 106° (ESE) 14:43:51 437.325
AO-7 05 Jul 14:41:43 14:48:33 30° 62° (ENE) 14:55:37 29.400- 29.500
HORYU 2 05 Jul 15:04:21 15:07:52 25° 71° (ENE) 15:11:30 437.375
ISS 05 Jul 15:06:21 15:09:35 73° 225° (SW) 15:12:48 145.825
KKS-1 05 Jul 15:08:11 15:12:07 31° 97° (E) 15:16:05 437.445
JAS-2 05 Jul 15:11:54 15:16:55 55° 74° (ENE) 15:22:08 435.910
ITAMSAT 1 05 Jul 15:22:36 15:27:01 27° 265° (W) 15:31:21 435.822/435.867
Gurwin Techsat 1B 05 Jul 15:23:35 15:28:01 26° 265° (W) 15:32:20 435.225
JUGNU 05 Jul 15:25:08 15:28:15 15° 168° (SSE) 15:31:26 437.505
YUBILEINY 05 Jul 15:26:37 15:35:06 55° 269° (W) 15:43:32 435.215
Cosmos 2491 05 Jul 15:42:35 15:51:24 73° 279° (W) 16:00:13 435.465 / 435.565
BEESAT 05 Jul 15:52:06 15:54:45 14° 293° (WNW) 15:57:10 436.000
BEESAT 3 05 Jul 15:52:20 15:56:10 40° 57° (ENE) 15:59:56 437.485
AIST 1 05 Jul 15:54:41 15:58:59 53° 279° (W) 16:03:19
STARS 05 Jul 15:56:51 16:01:13 71° 101° (E) 16:05:35 437.465
SO-50 05 Jul 16:02:09 16:06:39 52° 115° (ESE) 16:11:22 436.795
BEESAT 2 05 Jul 16:06:14 16:10:09 44° 58° (ENE) 16:14:01 435.950
O/OREOS (USA 219) 05 Jul 16:08:58 16:10:40 12° 56° (ENE) 16:12:37 437.305
PCSat 05 Jul 16:11:02 16:16:01 36° 303° (WNW) 16:20:58 145.827
Cosmos 2504 05 Jul 16:20:34 16:27:29 38° 76° (ENE) 16:34:58 435.465 / 435.565
SRMSAT 05 Jul 16:21:38 16:22:37 10° 164° (SSE) 16:23:46 437.500
